Location: Unspecified
(58.9933°N, 5.6375°E)
Time: 22:43:50
(UTC+02:00)

Okean 3 - Visible Passes

Search period start: 25 June 2017 00:00
Search period end: 05 July 2017 00:00
Orbit: 578 x 602 km, 82.5° (Epoch: 25 June)

Date Brightness Start Highest point End Pass type
(mag) Time Alt. Az. Time Alt. Az. Time Alt. Az.
25 Jun 5.8 01:42:09 10° N 01:45:21 20° ENE 01:48:31 10° ESE visible
26 Jun 5.5 01:50:14 10° N 01:53:48 25° ENE 01:57:21 10° ESE visible
27 Jun 5.1 01:58:21 10° N 02:02:13 32° ENE 02:06:02 10° SE visible
28 Jun 6.4 00:31:33 10° NE 00:32:05 10° NE 00:32:37 10° NE visible
28 Jun 4.6 02:06:31 10° N 02:10:36 41° ENE 02:14:37 10° SE visible
29 Jun 6.1 00:38:43 10° NNE 00:40:38 13° NE 00:42:33 10° ENE visible
29 Jun 4.1 02:14:44 10° N 02:18:56 54° ENE 02:23:05 10° SSE visible
30 Jun 6.0 00:46:32 10° NNE 00:49:10 16° NE 00:51:46 10° E visible
30 Jun 3.7 02:22:58 10° N 02:27:15 73° ENE 02:31:28 10° SSE visible
01 Jul 5.7 00:54:30 10° N 00:57:39 19° NE 01:00:45 10° ESE visible
01 Jul 3.5 02:31:14 10° NNW 02:35:31 84° WSW 02:39:44 10° S visible
02 Jul 5.4 01:02:34 10° N 01:06:06 24° ENE 01:09:34 10° ESE visible
02 Jul 3.6 02:39:32 10° NNW 02:43:45 62° W 02:47:55 10° S visible
03 Jul 5.0 01:10:42 10° N 01:14:30 31° ENE 01:18:17 10° SE visible
03 Jul 4.0 02:47:53 10° NNW 02:51:57 46° W 02:55:59 10° SSW visible
04 Jul 4.5 01:18:51 10° N 01:22:54 40° ENE 01:26:52 10° SE visible
04 Jul 4.4 02:56:17 10° NNW 03:00:08 34° W 03:03:56 10° SSW visible
